Regional Weather Roundup
Issued by NWS

Home | Current Version | Previous Version | Graphics & Text | Print | Product List | Glossary On
Versions: 1 2 3 4 5 6 7 8 9 10 11 12 13 14 15 16 17 18 19 20 21 22 23 24 25 26 27 28 29 30 31 32 33 34 35 36 37 38 39 40 41 42 43 44 45 46 47 48 49 50
000
ASUS43 KLOT 242004
RWRIL

ILLINOIS REGIONAL WEATHER ROUNDUP
NATIONAL WEATHER SERVICE CHICAGO/ROMEOVILLE IL
300 PM CDT WED MAY 24 2017

NOTE: "FAIR" INDICATES FEW OR NO CLOUDS BELOW 12,000 FEET WITH NO
SIGNIFICANT WEATHER AND/OR OBSTRUCTIONS TO VISIBILITY.

* THESE STATIONS ARE NOT UNDER NWS QUALITY CONTROL. THEY ALSO MAY NOT
  REPORT WEATHER SUCH AS PRECIPITATION OR FOG.

ILZ001-002-007-009-015-016-024-242100-
NORTHWEST ILLINOIS

CITY           SKY/WX    TMP DP  RH WIND       PRES   REMARKS
MOLINE         CLOUDY    60  52  74 NE9       29.60S
STERLING*      CLOUDY    58  54  86 N8        29.60S
$$

ILZ003-004-008-010-011-017-018-242100-
NORTH CENTRAL ILLINOIS

CITY           SKY/WX    TMP DP  RH WIND       PRES   REMARKS
ROCKFORD       CLOUDY    59  53  80 N9        29.60F
FREEPORT*      CLOUDY    56  52  85 N8        29.62F
ROCHELLE*      CLOUDY    57  54  88 N13       29.59S
DE KALB*       CLOUDY    59  54  81 N15       29.57F
$$

ILZ005-006-012>014-019>023-242100-
NORTHEAST ILLINOIS

CITY           SKY/WX    TMP DP  RH WIND       PRES   REMARKS
CHICAGO-OHARE  CLOUDY    61  51  70 NE15G25   29.55S
CHICAGO-MIDWAY CLOUDY    60  52  74 N15       29.54S
AURORA         CLOUDY    62  53  72 N15       29.56S
LANSING*       PTSUNNY   57  53  86 N12       29.54S
JOLIET*        CLOUDY    62  55  75 N14G20    29.54S
WAUKEGAN       CLOUDY    59  51  75 N15G28    29.56S
DUPAGE AIRPORT CLOUDY    61  53  75 N16       29.55S
WHEELING       CLOUDY    60  53  77 N12G23    29.56F
MORRIS*        CLOUDY    61  53  75 N6        29.53F
ROMEOVILLE*    CLOUDY    60  56  85 NE14G21   29.54S
NORTHERLY ISL    N/A     55  49  80 NW17        N/A
$$

LMZ740>746-242100-
SOUTHERN LAKE MICHIGAN

STATION/POSITION SKY/WX   TEMP    WIND        PRES    VSBY  WAVE
                          AIR SEA DIR/SP/G                  HT/PER
                          (F)     (DEG/KT/KT) (MB)    (MI)  (FT/S)
SOUTHERN BUOY              49 45   10/ 17/ 19 1000.6          3/ 4
WILMETTE HARBOR            49 52                N/A           5/ 4
HARRISON CRIB              52     350/ 20/ 24   N/A
BURNHAM HARBOR             54     340/ 14/ 19   N/A
CALUMET HARBOR             54     330/ 13/ 19 1000.1S
BURNS HARBOR               52      10/  3/  5 1000.7R
MICHIGAN CITY              53      20/ 11/ 13   N/A
MICHIGAN CITY 6N           52 54   10/ 16/ 19   N/A           4/ 4
ST. JOSEPH                 55 56   40/ 14/ 17  999.3S         4/ 4
$$

ILZ025>027-034>036-040-047-049-050-058-095>099-242100-
WEST-CENTRAL ILLINOIS

CITY           SKY/WX    TMP DP  RH WIND       PRES   REMARKS
QUINCY         MOSUNNY   65  52  62 NW9       29.59F
GALESBURG*     CLOUDY    61  52  72 N17       29.58S
MACOMB*        CLOUDY    62  55  76 NE9       29.60S
JACKSONVILLE*  PTSUNNY   64  53  67 NW15      29.56F
$$

ILZ028>032-037-038-041>044-048-051>054-059>061-242100-
CENTRAL ILLINOIS

CITY           SKY/WX    TMP DP  RH WIND       PRES   REMARKS
BLOOMINGTON    CLOUDY    63  54  72 N15       29.54F
DECATUR        CLOUDY    64  54  69 N7        29.52F
PEORIA         CLOUDY    61  54  77 NE10      29.57R
LACON*         CLOUDY    58  55  87 N10       29.57S
LINCOLN*       CLOUDY    67  56  67 N12       29.53F
SPRINGFIELD    PTSUNNY   68  55  63 N8        29.54F
TAYLORVILLE    NOT AVBL
$$

ILZ033-039-045-046-055>057-062-063-242100-
EAST-CENTRAL ILLINOIS

CITY           SKY/WX    TMP DP  RH WIND       PRES   REMARKS
CHAMPAIGN      RAIN      58  55  90 N10       29.52S FOG
MATTOON        LGT RAIN  60  57  89 NW12      29.50F
$$

ILZ079-100>102-242100-
SOUTHWEST ILLINOIS

CITY           SKY/WX    TMP DP  RH WIND       PRES   REMARKS
ALTON          SHOWER    55  50  82 NE8       29.57R
BELLEVILLE     PTSUNNY   64  49  58 NW13      29.55F
CAHOKIA*       SUNNY     70  47  43 NW12      29.55F
SPARTA*        CLOUDY    62  49  61 NW6       29.56S
$$

ILZ064>066-069>071-074>076-080>082-084>086-088>090-092>094-242100-
SOUTH-CENTRAL ILLINOIS

CITY           SKY/WX    TMP DP  RH WIND       PRES   REMARKS
CARBONDALE     CLOUDY    65  49  56 NW18G25   29.53F
CAIRO*         CLOUDY    66  48  52 NW12G17   29.54S
EFFINGHAM*     DRIZZLE   60  58  91 CALM      29.53S
MARION         PTSUNNY   66  48  52 NW14      29.53F
MT. VERNON       N/A     64  52  64 VRB3      29.52F
CENTRALIA*     CLOUDY    66  53  62 NW14      29.51F
SALEM*         CLOUDY    64  52  65 NW9       29.52F
$$

ILZ067-068-072-073-078-083-087-091-242100-
SOUTHEAST ILLINOIS

CITY           SKY/WX    TMP DP  RH WIND       PRES   REMARKS
LAWRENCEVILLE  RAIN      59  57  93 NW12      29.48F FOG
FLORA*         DRIZZLE   61  57  85 N5        29.52S
FAIRFIELD*     CLOUDY    62  53  72 NW6       29.51S
HARRISBURG*    PTSUNNY   64  52  66 NW8       29.52F
ROBINSON*      RAIN      57  56  97 NW12      29.49F
CARMI*         LGT RAIN  60  56  86 NW12G17   29.51S
$$

ABBREVIATIONS USED IN REMARKS
   TC - TEMPERATURE IN CELSIUS
  WCI - WIND CHILL INDEX
   HX - HEAT INDEX
  VSB - VISIBILITY
$$





USA.gov is the U.S. government's official web portal to all federal, state and local government web resources and services.